• In Italy
  • List of Countries
  • For 7 days
  • Water Temperature
  • Satellite Maps
  • Weather Map
  • Weather Widgets
  • user-avatar
    Login

    Hourly Weather Salta

    Today, 18 November, Saturday

    Time Temperature Precipitation Wind Pressure Humidity
    00:00 +21°C° 0.1 mm 1 mps 648 mmHg 69%
    01:00 +20°C° 0.1 mm 1 mps 648 mmHg 72%
    02:00 +20°C° 0 mm 1 mps 648 mmHg 64%
    03:00 +19°C° 0 mm 1 mps 648 mmHg 65%
    04:00 +19°C° 0 mm 1 mps 648 mmHg 66%
    05:00 +19°C° 0 mm 1 mps 649 mmHg 67%
    06:00 +18°C° 0 mm 2 mps 650 mmHg 66%
    07:00 +19°C° 0 mm 2 mps 650 mmHg 64%
    08:00 +20°C° 0 mm 3 mps 651 mmHg 63%
    09:00 +19°C° 0.1 mm 3 mps 651 mmHg 65%
    10:00 +18°C° 0.1 mm 3 mps 651 mmHg 67%
    11:00 +18°C° 0.1 mm 4 mps 650 mmHg 69%
    12:00 +18°C° 0 mm 3 mps 650 mmHg 65%
    13:00 +19°C° 0 mm 3 mps 649 mmHg 61%
    14:00 +19°C° 0 mm 3 mps 649 mmHg 57%
    15:00 +19°C° 0 mm 3 mps 649 mmHg 56%
    16:00 +19°C° 0 mm 3 mps 648 mmHg 56%
    17:00 +19°C° 0 mm 2 mps 648 mmHg 55%
    18:00 +18°C° 0 mm 2 mps 649 mmHg 58%
    19:00 +17°C° 0 mm 2 mps 649 mmHg 62%
    20:00 +16°C° 0 mm 2 mps 649 mmHg 66%
    21:00 +15°C° 0 mm 2 mps 650 mmHg 67%
    22:00 +15°C° 0 mm 1 mps 650 mmHg 67%
    23:00 +14°C° 0 mm 1 mps 650 mmHg 68%

    Tomorrow, 19 November, Sunday

    Time Temperature Precipitation Wind Pressure Humidity
    00:00 +14°C° 0 mm 1 mps 650 mmHg 69%
    01:00 +14°C° 0 mm 1 mps 649 mmHg 69%
    02:00 +14°C° 0 mm 1 mps 649 mmHg 69%
    03:00 +14°C° 0 mm 1 mps 649 mmHg 69%
    04:00 +14°C° 0 mm 1 mps 649 mmHg 68%
    05:00 +13°C° 0 mm 1 mps 648 mmHg 68%
    06:00 +16°C° 0 mm 1 mps 649 mmHg 60%
    07:00 +19°C° 0 mm 1 mps 650 mmHg 53%
    08:00 +21°C° 0 mm 1 mps 651 mmHg 45%
    09:00 +23°C° 0 mm 2 mps 651 mmHg 41%
    10:00 +24°C° 0 mm 3 mps 651 mmHg 37%
    11:00 +26°C° 0 mm 3 mps 652 mmHg 33%
    12:00 +27°C° 0 mm 3 mps 651 mmHg 31%
    13:00 +28°C° 0 mm 3 mps 650 mmHg 29%
    14:00 +29°C° 0 mm 4 mps 649 mmHg 27%
    15:00 +28°C° 0 mm 4 mps 649 mmHg 28%
    16:00 +27°C° 0 mm 4 mps 648 mmHg 30%
    17:00 +27°C° 0 mm 4 mps 648 mmHg 31%
    18:00 +25°C° 0 mm 3 mps 647 mmHg 39%
    19:00 +21°C° 0 mm 3 mps 647 mmHg 47%
    20:00 +19°C° 0 mm 2 mps 647 mmHg 55%
    21:00 +19°C° 0 mm 2 mps 648 mmHg 57%
    22:00 +18°C° 0 mm 2 mps 648 mmHg 60%
    23:00 +18°C° 0 mm 1 mps 648 mmHg 62%

    Day after tomorrow, 20 November, Monday

    Time Temperature Precipitation Wind Pressure Humidity
    00:00 +18°C° 0 mm 1 mps 648 mmHg 63%
    01:00 +18°C° 0 mm 1 mps 647 mmHg 63%
    02:00 +16°C° 0 mm 1 mps 647 mmHg 63%
    03:00 +16°C° 0 mm 1 mps 647 mmHg 60%
    04:00 +16°C° 0 mm 1 mps 647 mmHg 58%
    05:00 +16°C° 0 mm 2 mps 647 mmHg 55%
    06:00 +18°C° 0 mm 2 mps 648 mmHg 48%
    07:00 +20°C° 0 mm 2 mps 649 mmHg 41%
    08:00 +23°C° 0 mm 2 mps 650 mmHg 34%
    09:00 +25°C° 0 mm 3 mps 650 mmHg 30%
    10:00 +27°C° 0 mm 3 mps 650 mmHg 26%
    11:00 +29°C° 0 mm 3 mps 651 mmHg 23%
    12:00 +30°C° 0 mm 3 mps 650 mmHg 21%
    13:00 +31°C° 0 mm 3 mps 649 mmHg 20%
    14:00 +33°C° 0 mm 3 mps 649 mmHg 19%
    15:00 +31°C° 0 mm 3 mps 648 mmHg 20%
    16:00 +31°C° 0 mm 3 mps 648 mmHg 20%
    17:00 +30°C° 0 mm 4 mps 647 mmHg 21%
    18:00 +28°C° 0 mm 3 mps 647 mmHg 28%
    19:00 +25°C° 0 mm 2 mps 648 mmHg 34%
    20:00 +23°C° 0 mm 2 mps 648 mmHg 40%
    21:00 +22°C° 0 mm 1 mps 648 mmHg 42%
    22:00 +22°C° 0 mm 1 mps 648 mmHg 44%
    23:00 +21°C° 0 mm 1 mps 649 mmHg 45%

    21 November, Tuesday

    Time Temperature Precipitation Wind Pressure Humidity
    00:00 +21°C° 0 mm 1 mps 649 mmHg 45%
    01:00 +20°C° 0 mm 1 mps 648 mmHg 44%
    02:00 +20°C° 0 mm 1 mps 648 mmHg 44%
    03:00 +20°C° 0 mm 1 mps 648 mmHg 44%
    04:00 +20°C° 0 mm 1 mps 649 mmHg 44%
    05:00 +19°C° 0 mm 1 mps 649 mmHg 44%
    06:00 +21°C° 0 mm 2 mps 650 mmHg 40%
    07:00 +24°C° 0 mm 2 mps 651 mmHg 36%
    08:00 +27°C° 0 mm 2 mps 652 mmHg 31%
    09:00 +28°C° 0 mm 2 mps 652 mmHg 30%
    10:00 +29°C° 0 mm 3 mps 652 mmHg 29%
    11:00 +30°C° 0 mm 4 mps 652 mmHg 28%
    12:00 +30°C° 0.3 mm 4 mps 652 mmHg 29%
    13:00 +30°C° 0.3 mm 4 mps 651 mmHg 30%
    14:00 +30°C° 0.3 mm 5 mps 650 mmHg 32%
    15:00 +29°C° 0.3 mm 5 mps 650 mmHg 36%
    16:00 +28°C° 0.3 mm 4 mps 649 mmHg 40%
    17:00 +27°C° 0.3 mm 4 mps 649 mmHg 45%
    18:00 +25°C° 0 mm 4 mps 649 mmHg 51%
    19:00 +24°C° 0 mm 3 mps 650 mmHg 57%
    20:00 +21°C° 0 mm 3 mps 651 mmHg 63%
    21:00 +21°C° 0 mm 2 mps 651 mmHg 65%
    22:00 +20°C° 0 mm 2 mps 652 mmHg 67%
    23:00 +20°C° 0 mm 2 mps 652 mmHg 69%

    22 November, Wednesday

    Time Temperature Precipitation Wind Pressure Humidity
    00:00 +19°C° 0 mm 2 mps 652 mmHg 70%
    01:00 +19°C° 0 mm 2 mps 651 mmHg 71%
    02:00 +19°C° 0 mm 2 mps 651 mmHg 71%
    03:00 +18°C° 0 mm 2 mps 651 mmHg 74%
    04:00 +17°C° 0 mm 2 mps 651 mmHg 76%
    05:00 +18°C° 0 mm 1 mps 651 mmHg 78%
    06:00 +18°C° 0 mm 2 mps 652 mmHg 71%
    07:00 +19°C° 0 mm 2 mps 653 mmHg 65%
    08:00 +20°C° 0 mm 2 mps 653 mmHg 59%
    09:00 +23°C° 0 mm 2 mps 653 mmHg 55%
    10:00 +24°C° 0 mm 2 mps 654 mmHg 51%
    11:00 +26°C° 0 mm 3 mps 654 mmHg 47%
    12:00 +26°C° 0.1 mm 3 mps 653 mmHg 47%
    13:00 +26°C° 0.1 mm 3 mps 652 mmHg 46%
    14:00 +26°C° 0.1 mm 3 mps 651 mmHg 46%
    15:00 +26°C° 0 mm 3 mps 651 mmHg 47%
    16:00 +25°C° 0 mm 3 mps 650 mmHg 48%
    17:00 +25°C° 0 mm 3 mps 650 mmHg 49%
    18:00 +24°C° 0 mm 2 mps 650 mmHg 54%
    19:00 +21°C° 0 mm 2 mps 650 mmHg 58%
    20:00 +21°C° 0 mm 1 mps 651 mmHg 63%
    21:00 +21°C° 0 mm 1 mps 651 mmHg 64%
    22:00 +20°C° 0 mm 1 mps 651 mmHg 66%
    23:00 +20°C° 0 mm 1 mps 651 mmHg 68%

    23 November, Thursday

    Time Temperature Precipitation Wind Pressure Humidity
    00:00 +19°C° 0 mm 1 mps 651 mmHg 69%
    01:00 +19°C° 0 mm 1 mps 650 mmHg 71%
    02:00 +18°C° 0 mm 1 mps 650 mmHg 72%
    03:00 +18°C° 0 mm 1 mps 650 mmHg 73%
    04:00 +18°C° 0 mm 1 mps 650 mmHg 75%
    05:00 +18°C° 0 mm 1 mps 650 mmHg 76%
    06:00 +20°C° 0 mm 1 mps 651 mmHg 67%
    07:00 +22°C° 0 mm 1 mps 652 mmHg 58%
    08:00 +24°C° 0 mm 2 mps 653 mmHg 49%
    09:00 +25°C° 0 mm 2 mps 653 mmHg 44%
    10:00 +27°C° 0 mm 3 mps 652 mmHg 40%
    11:00 +28°C° 0 mm 3 mps 652 mmHg 35%
    12:00 +29°C° 0 mm 4 mps 652 mmHg 34%
    13:00 +30°C° 0 mm 4 mps 651 mmHg 34%
    14:00 +30°C° 0 mm 4 mps 651 mmHg 33%
    15:00 +30°C° 0 mm 5 mps 650 mmHg 34%
    16:00 +29°C° 0 mm 5 mps 649 mmHg 36%
    17:00 +29°C° 0 mm 5 mps 649 mmHg 37%
    18:00 +27°C° 0 mm 4 mps 649 mmHg 44%
    19:00 +25°C° 0 mm 3 mps 649 mmHg 51%
    20:00 +23°C° 0 mm 2 mps 649 mmHg 58%
    21:00 +22°C° 0 mm 1 mps 649 mmHg 60%
    22:00 +22°C° 0 mm 1 mps 650 mmHg 61%
    23:00 +21°C° 0 mm 1 mps 650 mmHg 63%
    Show more